World > North America > United States > Texas > Jester

Hourly Jester, TX Regional Weather

Feedback E-mail the Weather

Quick WX

Jester, TX Weather Maps

°F °C°F °C
Jester Weather Map
UTC Time: 8/13/2022, 06:38
Your Time:

Jester, TX Regional Weather

Expires:202208130700;;009699
ASUS44 KFWD 130615
RWRTX 
NORTH TEXAS HOURLY WEATHER ROUNDUP
NATIONAL WEATHER SERVICE FORT WORTH TX
100 AM CDT SAT AUG 13 2022

NOTE: "FAIR" INDICATES FEW OR NO CLOUDS BELOW 12,000 FEET WITH NO
SIGNIFICANT WEATHER AND/OR OBSTRUCTIONS TO VISIBILITY.


TXZ143>147-156>162-174-175-130700-
CENTRAL TEXAS
  
CITY           SKY/WX    TMP DP  RH WIND       PRES   REMARKS
WACO           FAIR      85  70  60 CALM      30.00S                  
6HR MIN TEMP:  84; 6HR MAX TEMP:  98;                                

WACO-MCGREGOR  FAIR      82  71  69 CALM      30.01S                  
6HR MIN TEMP:  81; 6HR MAX TEMP:  97; 6HR PCP:  0.02;                

HILLSBORO      FAIR      84  69  61 E5        30.01S                  
6HR MIN TEMP:  84; 6HR MAX TEMP:  96;                                

CORSICANA      FAIR      84  69  60 E6        30.01S                  
6HR MIN TEMP:  84; 6HR MAX TEMP:  95;                                

MEXIA          FAIR      82  71  68 CALM      30.00S                  
6HR MIN TEMP:  82; 6HR MAX TEMP:  94;                                

HEARNE         FAIR      81  72  74 CALM      30.00S                  
6HR MIN TEMP:  81; 6HR MAX TEMP:  95;                                

CAMERON        FAIR      82  72  72 SW5       29.99S                  
6HR MIN TEMP:  82; 6HR MAX TEMP:  94;                                

TEMPLE         MOCLDY    81  71  71 S6        30.01S                  
6HR MIN TEMP:  80; 6HR MAX TEMP:  96;                                

KILLEEN        MOCLDY    80  68  66 S3        29.99S                  
6HR MIN TEMP:  80; 6HR MAX TEMP:  95;                                

KILLEEN-SKYLRK FAIR      81  70  69 SE3       30.02S                  
6HR MIN TEMP:  81; 6HR MAX TEMP:  96;                                

FORT HOOD      FAIR      81  69  65 SE3       30.02R                  
6HR MIN TEMP:  81; 6HR MAX TEMP:  96; 6HR PCP: TRACE;                

GATESVILLE     FAIR      82  68  61 MISG      30.04S                  
HAMILTON       FAIR      82  67  61 S6        30.05R                  
LAMPASAS       FAIR      80  67  63 CALM        N/A                   
6HR MIN TEMP:  80; 6HR MAX TEMP:  94;                                

$$


SKY/WX - Weather  TMP - Temperature  DP - Dew Point  RH - Humidity
WIND - Wind Direction/Speed PRES - Barometric Pressure VSB - Visibility
WCI - Wind Chill Index E13G22 Wind - East Wind 13 mph/Gusts of 22 mph

Trending Headlines

Jester Radar Loop



Jester Quick Facts


National Two Day Weather Forecast


E-mail the Jester Weather Forecast

Voice your opinion or tell us about page issues...